Starlink 30479

operational
NORAD ID: 57898 Int'l Des: 2023-146 Owner: SPXS Country: US Constellation: starlink
LEOCIRCULAR

Starlink 30479について

説明を読み込み中...

リアルタイム位置

3D地球を読み込み中...

次回通過

高度履歴

Altitude vs Time

uPlot chart will show altitude changes over time

軌道要素

1 57898U 23146H 26035.96533995 .00001174 00000-0 10197-3 0 9992
2 57898 43.0033 131.1621 0001344 269.4566 90.6122 15.02535585132147
Epoch: Feb 4, 2026 • Age: 10 hours

現在のステータス

高度 562.7 km
速度 7.59 km/s
衛星直下点 40.98°N, 32.72°W
打ち上げ日 Sep 20, 2023
運用期間 2.3 years
タイプ internet

技術仕様

分類 Payload
質量 730.00 kg
乾燥質量 700.00 kg
総質量 730.00 kg
長さ 0.30 m
直径 4.10 m
スパン 29.00 m
形状 Box + pan
製造者 SPXS
バスタイプ Starlink V2M
フェーズステータス In Orbit
所有者/国 SPXS/US

大規模コンステレーション

Loading constellations...